AirNav   ProFlight Series 2 Aviation Headset
 
 1311 users online  

88G Gradolph Field Airport
Petersburg, Michigan, USA

GOING TO PETERSBURG?


FAA INFORMATION EFFECTIVE 18 JUNE 2020

Location

FAA Identifier: 88G
Lat/Long: 41-55-11.1660N 083-44-05.7790W
41-55.186100N 083-44.096317W
41.9197683,-83.7349386
(estimated)
Elevation: 673 ft. / 205.1 m (surveyed)
Variation: 05W (1985)
From city: 2 miles NW of PETERSBURG, MI
Time zone: UTC -4 (UTC -5 during Standard Time)
Zip code: 49238

Airport Operations

Airport use: Open to the public
Activation date: 04/1968
Control tower: no
ARTCC: CLEVELAND CENTER
FSS: LANSING FLIGHT SERVICE STATION
NOTAMs facility: LAN (NOTAM-D service available)
Attendance: CONTINUOUS
Wind indicator: lighted
Segmented circle: no
Lights: FOR LIRL RWY 09/27 CALL 734-279-1679.

Airport Communications

CTAF: 122.9
WX AWOS-3 at DUH (12 nm S): 119.175 (734-856-1563)
WX AWOS-3 at TTF (13 nm E): 119.075 (734-384-0259)
WX ASOS at ADG (16 nm W): 118.375 (517-265-9089)
WX ASOS at ARB (18 nm N): 134.55 (734-668-7173)

Nearby radio navigation aids

VOR radial/distance  VOR name  Freq  Var
CRLr241/14.6CARLETON VOR/DME115.7003W
DXOr229/24.1DETROIT VOR/DME113.4006W
SVMr195/30.0SALEM VORTAC114.3003W

 
NDB name  Hdg/Dist  Freq  Var  ID
TECUMSEH141/9.623906WTCU - -.-. ..-
ADRIAN085/15.627806WADG .- -.. --.
GROSSE ILE254/28.141907WRYS .-. -.-- ...

Airport Services

Parking: hangars and tiedowns
Airframe service: NONE
Powerplant service: NONE
Bottled oxygen: NONE
Bulk oxygen: NONE

Runway Information

Runway 9/27

Dimensions: 2381 x 110 ft. / 726 x 34 m
Surface: turf, in good condition
Runway edge lights: non-standard
NSTD LIRL DUE TO LENS COLOR & CONFIGURATION.
Operational restrictions: RWY 09/27 THRS & DSPLCD THRS MKD WITH YELLOW CONES.
RUNWAY 9  RUNWAY 27
Latitude: 41-55.185833N41-55.185833N
Longitude: 083-44.358500W083-43.833667W
Elevation: 673.0 ft.673.0 ft.
Traffic pattern: leftleft
Runway end identifier lights: nono
Obstructions: 60 ft. trees, 60 ft. right of centerline
APCH RATIO 2:1 FROM DSPLCD THLD TO 70 FT TREES 145 DISTANCE 60 FT R.
30 ft. tree, 35 ft. from runway, 80 ft. right of centerline, 1:1 slope to clear

Airport Ownership and Management from official FAA records

Ownership: Privately-owned
Owner: FRED E. WAIBEL
1785 DENNISON ROAD, BOX 308
PETERSBURG, MI 49270
Phone 734-279-1679
Manager: FRED E. WAIBEL
1785 DENNISON ROAD, BOX 308
PETERSBURG, MI 49270
Phone 734-279-1679

Airport Operational Statistics

Aircraft based on the field: 1
Single engine airplanes: 1
    
Aircraft operations: 100/year *
50% transient general aviation
50% local general aviation
* for 12-month period ending 31 December 2017

Additional Remarks

A30A-27 MARKED 15 FT PLINE 237 FT FM RWY END.
SOFT WHEN WET.
FOR CD CTC DETROIT APCH AT 800-499-8181.

Instrument Procedures

There are no published instrument procedures at 88G.

Some nearby airports with instrument procedures:

KDUH - Toledo Suburban Airport (12 nm S)
KTTF - Custer Airport (13 nm E)
KADG - Lenawee County Airport (16 nm W)
KARB - Ann Arbor Municipal Airport (18 nm N)
KTOL - Toledo Express Airport (20 nm S)
 
Loc | Ops | Rwys | IFR | FBO | Links
Com | Nav | Svcs | Stats | Notes
Area around 88G (Gradolph Field Airport)
 
Road maps at: MapQuest Bing Google
 
Aerial photo
WARNING: Photo may not be current or correct
Aerial photo of 88G (Gradolph Field Airport)
Photo credit: Mark - www.LocalHangar.com

Do you have a better or more recent aerial photo of Gradolph Field Airport that you would like to share? If so, please send us your photo.

 
Sectional chart

 
Airport distance calculator
Flying to Gradolph Field Airport? Find the distance to fly.

From to 88G

Sunrise and sunset
Times for 02-Jul-2020
 Local
(UTC-4)
 Zulu
(UTC)
Morning civil twilight05:3109:31
Sunrise06:0510:05
Sunset21:1301:13
Evening civil twilight21:4701:47

Current date and time
Zulu (UTC)  02-Jul-2020 16:12:02
Local (UTC-4)  02-Jul-2020 12:12:02
 
METAR
KDUH 
12nm S 
021555Z AUTO 02004KT 10SM SCT050 30/16 A3004 RMK AO2 T02980161
KTTF 
14nm E 
021556Z AUTO 32005KT 10SM CLR 30/12 A3004 RMK AO2 T02950119
KADG 
16nm W 
021553Z AUTO VRB05KT 10SM CLR 29/17 A3006 RMK AO2 SLP174 T02940172 TSNO
KARB 
18nm N 
734-668-7173
021553Z 00000KT 10SM FEW055 28/16 A3005 RMK AO2 SLP169 T02830156
KTOL 
20nm S 
021552Z 05009KT 10SM CLR 31/17 A3004 RMK AO2 SLP168 T03110167
KYIP 
21nm NE 
021553Z 01005KT 10SM CLR 32/17 A3005 RMK AO2 SLP167 T03170167
TAF
KTOL 
20nm S 
021122Z 0212/0312 01005KT P6SM SKC
KYIP 
21nm NE 
021120Z 0212/0312 35003KT P6SM SKC FM021900 16006KT P6SM FEW080 SCT250 FM030200 28004KT P6SM SCT250
NOTAMs
Click for the latest NOTAMs
NOTAMs are issued by the DoD/FAA and will open in a separate window not controlled by AirNav.

 

 
 

Would you like to see your business listed on this page?

 If your business provides an interesting product or service to pilots, flight crews, aircraft, or users of the Gradolph Field Airport, you should consider listing it here.  To start the listing process, click on the button below
 
Add a business
 

Other Pages about Gradolph Field Airport

Page from the Michigan Airport Directory (PDF)
 
Update a link
 
Copyright © AirNav, LLC. All rights reserved. Privacy Policy  Contact